sat.trackr.live / text

‹ back to catalog

STARLINK-5551

NORAD 56359 · 2023-058AU

PAYLOAD ACTIVE UNKNOWN

§ Identity

Operator
Country
US
Launch date
2023-04-27
Launch site
AFWTR
Launch vehicle
Mass (kg)
RCS (m²)

Purposes: comms

External: N2YO · Heavens-Above · Gunter

§ Orbital elements

Epoch: 2026-05-25T00:17:27.885120Z

Period
95.64 min
Inclination
97.4453°
Eccentricity
0.0002232
Mean motion
15.05695142 rev/d
Perigee alt
547.8 km
Apogee alt
550.9 km
Semi-major
6,927.5 km
B*
-6.4909e-4
RAAN
144.9060°
Arg perigee
87.4159°
Mean anomaly
272.7324°
Rev number
16,960

§ Raw data

STARLINK-55511 56359U 23058AU  26145.01212830 -.00009423  00000+0 -64909-3 0  99912 56359  97.4453 144.9060 0002232  87.4159 272.7324 15.05695142169606

JSON: /api/v1/satellites/56359 · /tle

For live sub-satellite position, see the globe view (requires WebGL).

§ Visibility from observer

Set your observer location to see the next 7 days of passes ≥ 10°. The values pass through the URL so the page stays shareable.

No JS? Fill the form by hand. The geolocation button needs JavaScript.